Regional Weather Roundup
Issued by NWS Jackson, KY

Home | Current Version | Previous Version | Graphics & Text | Print | Product List | Glossary On
Versions: 1 2 3 4 5 6 7 8 9 10 11 12 13 14 15 16 17 18 19 20 21 22 23 24 25 26 27 28 29 30 31 32 33 34 35 36 37 38 39 40 41 42 43 44 45 46 47 48 49 50
000
ASUS43 KJKL 302011
RWRJKL

EAST KENTUCKY HOURLY WEATHER ROUNDUP
NATIONAL WEATHER SERVICE JACKSON KY
400 PM EDT WED JUL 30 2014

NOTE: "FAIR" INDICATES FEW OR NO CLOUDS BELOW 12,000 FEET WITH
NO SIGNIFICANT WEATHER AND/OR OBSTRUCTIONS TO VISIBILITY.

* THESE REPORTS ARE NOT UNDER NWS QUALITY CONTROL AND MAY NOT
  REPORT WEATHER SUCH AS PRECIPITATION AND FOG.

KYZ079-080-083-085-087-088-110-112-115-119-120-302100
...EASTERN KENTUCKY...

CITY           SKY/WX    TMP DP  RH WIND       PRES   REMARKS
JACKSON        MOSUNNY   75  59  57 VRB3      30.10F
LONDON         PTSUNNY   78  56  46 SW7       30.10F
SOMERSET*      CLOUDY    73  55  53 CALM      30.10F
MONTICELLO*    MOSUNNY   80  59  48 VRB3      30.11F
WILLIAMSBURG*  SUNNY     75  57  53 CALM      30.10F
MIDDLESBORO*   MOSUNNY   77  56  47 CALM      30.10F
HARLAN APT*    PTCLDY    77  54  44 MISG      30.11S
BLACK MTN*       N/A     66  54  63 CALM        N/A
PIKEVILLE APT* PTSUNNY   73  57  56 CALM      30.10F
BIG SANDY*     PTCLDY    76  59  56 W7        30.09F
MOREHEAD APT*    N/A     77  59  53 W6G14     30.08F
$$

KYZ035-036-041-042-044-050-067-078-099-302100
...CENTRAL KENTUCKY...

CITY           SKY/WX    TMP DP  RH WIND       PRES   REMARKS
MT STERLING*   MOSUNNY   79  59  50 W10       30.08F
FLEMING/MASON* PTSUNNY   79  61  53 W10       30.06F
DANVILLE*      MOSUNNY   79  57  47 W3        30.10S
RICHMOND*      MOSUNNY   79  54  41 W8        30.08F
LEXINGTON      MOSUNNY   80  58  46 W13       30.08F
FRANKFORT      MOSUNNY   79  56  45 W8        30.06F
$$

KYZ091>093-OHZ055-061-077-WVZ005-015-034-035-042-302100
...SOUTHERN OHIO/WEST VIRGINIA...

CITY           SKY/WX    TMP DP  RH WIND       PRES   REMARKS
COVINGTON      MOSUNNY   78  57  48 W10G21    30.03F
COLUMBUS       CLOUDY    71  59  65 S8        30.03S
DAYTON         PTSUNNY   79  57  46 W16G23    30.03F
WILMINGTON     CLOUDY    66  58  75 NE12      30.06R THUNDER
HUNTINGTON     LGT RAIN  76  59  55 SW9       30.04F
CHARLESTON     MOSUNNY   76  56  49 S10       30.06F
PINEVILLE*     SUNNY     77  58  51 MISG      30.16S
BECKLEY        PTSUNNY   71  52  50 VRB5      30.13F
BLUEFIELD      SUNNY     72  50  45 NW6       30.15F
$$

VAZ002-007-008-TNZ017-027-036-066-071-302100
...SOUTHWEST VIRGINIA/EAST TENNESSEE...

CITY           SKY/WX    TMP DP  RH WIND       PRES   REMARKS
WISE*          PTSUNNY   72  52  49 NW5       30.16F
JONESVILLE*    CLEAR     75  55  50 CALM      30.12F
ABINGDON*      SUNNY     76  51  41 CALM      30.12F
BRISTOL        MOSUNNY   77  51  40 VRB3      30.11F
KNOXVILLE      CLOUDY    78  55  44 N8        30.08F
OAK RIDGE      PTSUNNY   78  54  43 MISG      30.10F
CROSSVILLE     PTSUNNY   76  53  44 VRB3      30.13F
NASHVILLE      PTSUNNY   82  54  37 VRB6      30.10S
$$

...KEY TO REMARKS...
VSB - VISIBILITY IN MILES
WCI - WIND CHILL INDEX
HX  - HEAT INDEX

$$



USA.gov is the U.S. government's official web portal to all federal, state and local government web resources and services.